Вернуться в каталог

239ALFEROV

АктивенЛюбительское радиоSSO
NORAD 64881·PAYLOAD·🇷🇺 Russia
Это название спутника еще не подтверждено официальными источниками.

Запущен Jul 25, 2025 с Vostochny Cosmodrome

Loading…

Ближайшие Пролёты (ближайшие 24 часа)

TLE

СвежийSource: Space-Track

Эпоха: Sep 14, 2026, 21:45 UTC

1 64881U 25155F   26257.90652211  .00015065  00000-0  44255-3 0  9993
2 64881  97.4658 228.0941 0005819 197.9720 162.1318 15.35210747 94563

Отслеживайте 239ALFEROV в реальном времени с AllMySat

Download on the App Store